This demonstration page uses our WeatherBlox Daily Observations layout. Learn more.

Left ArrowRight Arrow

Hourly Observations for January 22, 2019

Temp ( °F °C ) Dew Point ( °F °C ) Humidity (%) Winds ( mph kmh ) Pressure ( in mb ) Visibility ( mi km ) Precip ( " mm )
12:53 am 00:53 Clear 43 6.1 38 3.3 82 82 Calm 30.27 1025 10 16 0.00 0.00
1:53 am 01:53 Clear 41 5 35 1.7 79 79 Calm 30.29 1026 10 16 0.00 0.00
2:53 am 02:53 Clear 41 5 36 2.2 82 82 N 3 6 30.30 1026 10 16 0.00 0.00
3:53 am 03:53 Clear 38 3.3 34 1.1 86 86 Calm 30.32 1027 10 16 0.00 0.00
4:53 am 04:53 Clear 37 2.8 33 0.6 86 86 Calm 30.33 1027 10 16 0.00 0.00
5:53 am 05:53 Clear 37 2.8 32 0 82 82 Calm 30.35 1028 10 16 0.00 0.00
6:53 am 06:53 Clear 36 2.2 32 0 86 86 Calm 30.36 1028 10 16 0.00 0.00
7:53 am 07:53 Sunny 40 4.4 35 1.7 83 83 Calm 30.39 1029 10 16 0.00 0.00
8:53 am 08:53 Sunny 44 6.7 38 3.3 79 79 Calm 30.40 1030 10 16 0.00 0.00
9:53 am 09:53 Sunny 50 10 40 4.4 68 68 Calm 30.41 1030 10 16 0.00 0.00
10:53 am 10:53 Sunny 52 11.1 41 5 66 66 E 5 7 30.42 1030 10 16 0.00 0.00
11:53 am 11:53 Sunny 55 12.8 42 5.6 62 62 undefined N/A 30.40 1030 10 16 0.00 0.00
12:38 pm 12:38 Mostly Cloudy 56 13.3 43 6.1 62 62 S 6 9 30.39 1029 10 16 0.00 0.00
12:53 pm 12:53 Mostly Cloudy 57 13.9 43 6.1 60 60 S 5 7 30.39 1029 10 16 0.00 0.00
1:07 pm 13:07 Partly Cloudy 56 13.3 43 6.1 62 62 SSW 5 7 30.39 1029 10 16 0.00 0.00
1:53 pm 13:53 Mostly Sunny 56 13.3 43 6.1 62 62 SE 6 9 30.39 1029 10 16 0.00 0.00
2:53 pm 14:53 Sunny 57 13.9 42 5.6 58 58 Calm 30.39 1029 10 16 0.00 0.00
3:53 pm 15:53 Sunny 57 13.9 43 6.1 60 60 Calm 30.40 1030 10 16 0.00 0.00
4:53 pm 16:53 Sunny 57 13.9 41 5 55 55 Calm 30.39 1029 10 16 0.00 0.00
5:53 pm 17:53 Clear 53 11.7 41 5 64 64 Calm 30.41 1030 10 16 0.00 0.00
6:53 pm 18:53 Clear 49 9.4 40 4.4 71 71 Calm 30.42 1030 10 16 0.00 0.00
7:53 pm 19:53 Clear 46 7.8 39 3.9 77 77 Calm 30.42 1030 10 16 0.00 0.00
8:53 pm 20:53 Clear 46 7.8 40 4.4 79 79 Calm 30.42 1030 8 13 0.00 0.00
9:53 pm 21:53 Hazy 42 5.6 37 2.8 82 82 NNW 3 6 30.44 1031 6 10 0.00 0.00
10:53 pm 22:53 Hazy 41 5 36 2.2 82 82 Calm 30.45 1031 6 10 0.00 0.00
11:53 pm 23:53 Hazy 41 5 36 2.2 82 82 Calm 30.45 1031 6 10 0.00 0.00

Powered by Vaisala Xweather